����������;��������(kVARh)
2017-12-11 00:00;8,65
2017-12-11 00:15;9,6
2017-12-11 00:30;10,7
2017-12-11 00:45;10,95
2017-12-11 01:00;10
2017-12-11 01:15;9,2
2017-12-11 01:30;10,3
2017-12-11 01:45;10,55
2017-12-11 02:00;12,3
2017-12-11 02:15;12,45
2017-12-11 02:30;13,85
2017-12-11 02:45;12,7
2017-12-11 03:00;14,15
2017-12-11 03:15;13,25
2017-12-11 03:30;14,25
2017-12-11 03:45;13,45
2017-12-11 04:00;14,3
2017-12-11 04:15;13,9
2017-12-11 04:30;15,55
2017-12-11 04:45;13,15
2017-12-11 05:00;14,45
2017-12-11 05:15;13,35
2017-12-11 05:30;15
2017-12-11 05:45;13,45
2017-12-11 06:00;13,35
2017-12-11 06:15;13,8
2017-12-11 06:30;14,2
2017-12-11 06:45;14,1
2017-12-11 07:00;12,3
2017-12-11 07:15;9,5
2017-12-11 07:30;15,5
2017-12-11 07:45;21,3
2017-12-11 08:00;22,95
2017-12-11 08:15;26,2
2017-12-11 08:30;29,95
2017-12-11 08:45;44,4
2017-12-11 09:00;48,6
2017-12-11 09:15;50,2
2017-12-11 09:30;63,05
2017-12-11 09:45;89,9
2017-12-11 10:00;72,05
2017-12-11 10:15;74,25
2017-12-11 10:30;66,05
2017-12-11 10:45;67,4
2017-12-11 11:00;65,8
2017-12-11 11:15;71
2017-12-11 11:30;76,75
2017-12-11 11:45;71,9
2017-12-11 12:00;73,55
2017-12-11 12:15;66,55
2017-12-11 12:30;73,1
2017-12-11 12:45;66,85
2017-12-11 13:00;67,15
2017-12-11 13:15;70,45
2017-12-11 13:30;64,3
2017-12-11 13:45;61,15
2017-12-11 14:00;59,9
2017-12-11 14:15;54,2
2017-12-11 14:30;53,85
2017-12-11 14:45;53,85
2017-12-11 15:00;49,6
2017-12-11 15:15;47,2
2017-12-11 15:30;51,35
2017-12-11 15:45;53,7
2017-12-11 16:00;50,3
2017-12-11 16:15;45,05
2017-12-11 16:30;45,5
2017-12-11 16:45;50,25
2017-12-11 17:00;48,9
2017-12-11 17:15;50,55
2017-12-11 17:30;46,1
2017-12-11 17:45;46,85
2017-12-11 18:00;46,8
2017-12-11 18:15;45,25
2017-12-11 18:30;41
2017-12-11 18:45;46,25
2017-12-11 19:00;48,4
2017-12-11 19:15;32,85
2017-12-11 19:30;36,1
2017-12-11 19:45;28,75
2017-12-11 20:00;35,75
2017-12-11 20:15;25,65
2017-12-11 20:30;27,2
2017-12-11 20:45;27,85
2017-12-11 21:00;25,8
2017-12-11 21:15;29,05
2017-12-11 21:30;31,5
2017-12-11 21:45;24,05
2017-12-11 22:00;29,8
2017-12-11 22:15;23
2017-12-11 22:30;25,4
2017-12-11 22:45;30,05
2017-12-11 23:00;27,3
2017-12-11 23:15;23,65
2017-12-11 23:30;17,4
2017-12-11 23:45;17,85
2017-12-12 00:00;23,6
2017-12-12 00:15;13,75
2017-12-12 00:30;14,45
2017-12-12 00:45;16,4
2017-12-12 01:00;13,75
2017-12-12 01:15;25,3
2017-12-12 01:30;13,3
2017-12-12 01:45;11,75
2017-12-12 02:00;16
2017-12-12 02:15;13,9
2017-12-12 02:30;13,25
2017-12-12 02:45;18,45
2017-12-12 03:00;11,6
2017-12-12 03:15;16,9
2017-12-12 03:30;13,3
2017-12-12 03:45;13,55
2017-12-12 04:00;18,85
2017-12-12 04:15;11,7
2017-12-12 04:30;15,45
2017-12-12 04:45;12,3
2017-12-12 05:00;10,85
2017-12-12 05:15;17,7
2017-12-12 05:30;12,2
2017-12-12 05:45;9,7
2017-12-12 06:00;14,55
2017-12-12 06:15;8,85
2017-12-12 06:30;11,35
2017-12-12 06:45;15,8
2017-12-12 07:00;9,65
2017-12-12 07:15;17,25
2017-12-12 07:30;17,7
2017-12-12 07:45;15,15
2017-12-12 08:00;20,75
2017-12-12 08:15;22,95
2017-12-12 08:30;23,3
2017-12-12 08:45;27,35
2017-12-12 09:00;29,55
2017-12-12 09:15;42,6
2017-12-12 09:30;49,75
2017-12-12 09:45;48,75
2017-12-12 10:00;52,25
2017-12-12 10:15;45,2
2017-12-12 10:30;48,6
2017-12-12 10:45;42,65
2017-12-12 11:00;53,35
2017-12-12 11:15;47,55
2017-12-12 11:30;55,5
2017-12-12 11:45;54,5
2017-12-12 12:00;52,2
2017-12-12 12:15;52
2017-12-12 12:30;40,5
2017-12-12 12:45;44,9
2017-12-12 13:00;48,45
2017-12-12 13:15;41,8
2017-12-12 13:30;45,8
2017-12-12 13:45;40,9
2017-12-12 14:00;46,3
2017-12-12 14:15;46,5
2017-12-12 14:30;43,1
2017-12-12 14:45;41,55
2017-12-12 15:00;39,5
2017-12-12 15:15;40,2
2017-12-12 15:30;36,2
2017-12-12 15:45;33,9
2017-12-12 16:00;36,9
2017-12-12 16:15;30,05
2017-12-12 16:30;33,45
2017-12-12 16:45;36,1
2017-12-12 17:00;32,5
2017-12-12 17:15;32,7
2017-12-12 17:30;27,2
2017-12-12 17:45;27,35
2017-12-12 18:00;27,25
2017-12-12 18:15;29,7
2017-12-12 18:30;29,3
2017-12-12 18:45;29
2017-12-12 19:00;24,6
2017-12-12 19:15;24,65
2017-12-12 19:30;20,1
2017-12-12 19:45;21,9
2017-12-12 20:00;18,6
2017-12-12 20:15;18,3
2017-12-12 20:30;17,75
2017-12-12 20:45;18,55
2017-12-12 21:00;18,25
2017-12-12 21:15;19,1
2017-12-12 21:30;21,6
2017-12-12 21:45;19,3
2017-12-12 22:00;10,55
2017-12-12 22:15;7,6
2017-12-12 22:30;11,15
2017-12-12 22:45;7,75
2017-12-12 23:00;5,85
2017-12-12 23:15;3,55
2017-12-12 23:30;3,3
2017-12-12 23:45;5,05
2017-12-13 00:00;3,95
2017-12-13 00:15;3,6
2017-12-13 00:30;0,3
2017-12-13 00:45;1,2
2017-12-13 01:00;0,6
2017-12-13 01:15;2,95
2017-12-13 01:30;3,3
2017-12-13 01:45;3,4
2017-12-13 02:00;3,4
2017-12-13 02:15;3,95
2017-12-13 02:30;3,95
2017-12-13 02:45;4,45
2017-12-13 03:00;5,85
2017-12-13 03:15;4,95
2017-12-13 03:30;4,4
2017-12-13 03:45;7,05
2017-12-13 04:00;5,75
2017-12-13 04:15;4,5
2017-12-13 04:30;3,25
2017-12-13 04:45;4,45
2017-12-13 05:00;4,3
2017-12-13 05:15;4,3
2017-12-13 05:30;4,4
2017-12-13 05:45;4,15
2017-12-13 06:00;4,7
2017-12-13 06:15;2,75
2017-12-13 06:30;8,15
2017-12-13 06:45;12,8
2017-12-13 07:00;15,1
2017-12-13 07:15;18,6
2017-12-13 07:30;41,3
2017-12-13 07:45;30,75
2017-12-13 08:00;14,2
2017-12-13 08:15;18,8
2017-12-13 08:30;22,35
2017-12-13 08:45;33,35
2017-12-13 09:00;32,6
2017-12-13 09:15;38,7
2017-12-13 09:30;38,8
2017-12-13 09:45;37,15
2017-12-13 10:00;48,55
2017-12-13 10:15;47,05
2017-12-13 10:30;46,8
2017-12-13 10:45;50
2017-12-13 11:00;50,2
2017-12-13 11:15;50
2017-12-13 11:30;56,9
2017-12-13 11:45;53,7
2017-12-13 12:00;60,05
2017-12-13 12:15;55,05
2017-12-13 12:30;55,9
2017-12-13 12:45;52
2017-12-13 13:00;54,7
2017-12-13 13:15;55,4
2017-12-13 13:30;53,6
2017-12-13 13:45;48
2017-12-13 14:00;54,1
2017-12-13 14:15;45,8
2017-12-13 14:30;46,3
2017-12-13 14:45;46,1
2017-12-13 15:00;45,95
2017-12-13 15:15;43,15
2017-12-13 15:30;42,95
2017-12-13 15:45;39
2017-12-13 16:00;36,1
2017-12-13 16:15;37,25
2017-12-13 16:30;40,2
2017-12-13 16:45;37,1
2017-12-13 17:00;37,7
2017-12-13 17:15;37,25
2017-12-13 17:30;36,25
2017-12-13 17:45;34,6
2017-12-13 18:00;33
2017-12-13 18:15;30,4
2017-12-13 18:30;30,45
2017-12-13 18:45;30,4
2017-12-13 19:00;30,05
2017-12-13 19:15;28,2
2017-12-13 19:30;28,3
2017-12-13 19:45;22,15
2017-12-13 20:00;20,55
2017-12-13 20:15;12,4
2017-12-13 20:30;13,95
2017-12-13 20:45;13,5
2017-12-13 21:00;14,4
2017-12-13 21:15;16,3
2017-12-13 21:30;17,05
2017-12-13 21:45;15,4
2017-12-13 22:00;16
2017-12-13 22:15;17,6
2017-12-13 22:30;20,2
2017-12-13 22:45;13,7
2017-12-13 23:00;13,8
2017-12-13 23:15;12,85
2017-12-13 23:30;12,55
2017-12-13 23:45;15,9
2017-12-14 00:00;13,65
2017-12-14 00:15;14,4
2017-12-14 00:30;15,3
2017-12-14 00:45;8,9
2017-12-14 01:00;6,75
2017-12-14 01:15;4,5
2017-12-14 01:30;7,2
2017-12-14 01:45;4,6
2017-12-14 02:00;9,25
2017-12-14 02:15;7,75
2017-12-14 02:30;8,8
2017-12-14 02:45;8,8
2017-12-14 03:00;10,75
2017-12-14 03:15;10,25
2017-12-14 03:30;16,75
2017-12-14 03:45;19,25
2017-12-14 04:00;18,75
2017-12-14 04:15;18,05
2017-12-14 04:30;18,4
2017-12-14 04:45;17,6
2017-12-14 05:00;16,3
2017-12-14 05:15;18,15
2017-12-14 05:30;15,4
2017-12-14 05:45;17,25
2017-12-14 06:00;14,85
2017-12-14 06:15;16,75
2017-12-14 06:30;14,95
2017-12-14 06:45;17,05
2017-12-14 07:00;25,1
2017-12-14 07:15;24,1
2017-12-14 07:30;42
2017-12-14 07:45;40,75
2017-12-14 08:00;23,05
2017-12-14 08:15;24,1
2017-12-14 08:30;17,7
2017-12-14 08:45;31,4
2017-12-14 09:00;33,15
2017-12-14 09:15;36,75
2017-12-14 09:30;33,4
2017-12-14 09:45;42,25
2017-12-14 10:00;44,45
2017-12-14 10:15;39,65
2017-12-14 10:30;41,75
2017-12-14 10:45;39,75
2017-12-14 11:00;46,35
2017-12-14 11:15;41,15
2017-12-14 11:30;44,5
2017-12-14 11:45;40,7
2017-12-14 12:00;44,45
2017-12-14 12:15;38,4
2017-12-14 12:30;41
2017-12-14 12:45;40,4
2017-12-14 13:00;46,3
2017-12-14 13:15;41,95
2017-12-14 13:30;43,75
2017-12-14 13:45;41,5
2017-12-14 14:00;45,6
2017-12-14 14:15;42,2
2017-12-14 14:30;44,7
2017-12-14 14:45;38,8
2017-12-14 15:00;36,55
2017-12-14 15:15;34,75
2017-12-14 15:30;32,7
2017-12-14 15:45;27,05
2017-12-14 16:00;30,7
2017-12-14 16:15;32,75
2017-12-14 16:30;30,1
2017-12-14 16:45;28,85
2017-12-14 17:00;31,05
2017-12-14 17:15;30,9
2017-12-14 17:30;27,55
2017-12-14 17:45;23,25
2017-12-14 18:00;23,85
2017-12-14 18:15;28,55
2017-12-14 18:30;28,35
2017-12-14 18:45;27,2
2017-12-14 19:00;35,85
2017-12-14 19:15;34,6
2017-12-14 19:30;34,7
2017-12-14 19:45;32,3
2017-12-14 20:00;27,1
2017-12-14 20:15;22,15
2017-12-14 20:30;23,1
2017-12-14 20:45;22,15
2017-12-14 21:00;22,4
2017-12-14 21:15;21,85
2017-12-14 21:30;21,55
2017-12-14 21:45;20,85
2017-12-14 22:00;13,2
2017-12-14 22:15;16,25
2017-12-14 22:30;17,8
2017-12-14 22:45;15,9
2017-12-14 23:00;17,8
2017-12-14 23:15;13,6
2017-12-14 23:30;8,2
2017-12-14 23:45;3,85
2017-12-15 00:00;1,35
2017-12-15 00:15;2,35
2017-12-15 00:30;3,05
2017-12-15 00:45;4,4
2017-12-15 01:00;3,1
2017-12-15 01:15;6,6
2017-12-15 01:30;4,8
2017-12-15 01:45;4,95
2017-12-15 02:00;4,45
2017-12-15 02:15;6,9
2017-12-15 02:30;4,9
2017-12-15 02:45;7,4
2017-12-15 03:00;5,55
2017-12-15 03:15;6,35
2017-12-15 03:30;6,2
2017-12-15 03:45;7,6
2017-12-15 04:00;4,65
2017-12-15 04:15;3,35
2017-12-15 04:30;4,4
2017-12-15 04:45;4,6
2017-12-15 05:00;4,9
2017-12-15 05:15;4,1
2017-12-15 05:30;4,45
2017-12-15 05:45;3,55
2017-12-15 06:00;3,5
2017-12-15 06:15;4,05
2017-12-15 06:30;4,35
2017-12-15 06:45;6,25
2017-12-15 07:00;8,05
2017-12-15 07:15;10,85
2017-12-15 07:30;12,05
2017-12-15 07:45;14,6
2017-12-15 08:00;15,35
2017-12-15 08:15;11,9
2017-12-15 08:30;10,55
2017-12-15 08:45;15,55
2017-12-15 09:00;19,45
2017-12-15 09:15;22,35
2017-12-15 09:30;44,5
2017-12-15 09:45;45,5
2017-12-15 10:00;36,15
2017-12-15 10:15;37,95
2017-12-15 10:30;36,2
2017-12-15 10:45;34,95
2017-12-15 11:00;35,8
2017-12-15 11:15;29,1
2017-12-15 11:30;40,65
2017-12-15 11:45;34,7
2017-12-15 12:00;39,6
2017-12-15 12:15;33,8
2017-12-15 12:30;34,25
2017-12-15 12:45;41,85
2017-12-15 13:00;34,95
2017-12-15 13:15;42,3
2017-12-15 13:30;37,7
2017-12-15 13:45;41,35
2017-12-15 14:00;36,45
2017-12-15 14:15;38
2017-12-15 14:30;38,55
2017-12-15 14:45;37,8
2017-12-15 15:00;43,05
2017-12-15 15:15;34,3
2017-12-15 15:30;30
2017-12-15 15:45;28,85
2017-12-15 16:00;30,5
2017-12-15 16:15;27,8
2017-12-15 16:30;27,6
2017-12-15 16:45;26,5
2017-12-15 17:00;28,85
2017-12-15 17:15;25,35
2017-12-15 17:30;25,45
2017-12-15 17:45;19,9
2017-12-15 18:00;21,65
2017-12-15 18:15;16,6
2017-12-15 18:30;19,1
2017-12-15 18:45;17,4
2017-12-15 19:00;19,6
2017-12-15 19:15;20,75
2017-12-15 19:30;20,8
2017-12-15 19:45;19
2017-12-15 20:00;19,4
2017-12-15 20:15;19
2017-12-15 20:30;19,4
2017-12-15 20:45;21
2017-12-15 21:00;17,8
2017-12-15 21:15;20,4
2017-12-15 21:30;18,6
2017-12-15 21:45;19,25
2017-12-15 22:00;18,85
2017-12-15 22:15;20,8
2017-12-15 22:30;16
2017-12-15 22:45;14,55
2017-12-15 23:00;11,65
2017-12-15 23:15;13,1
2017-12-15 23:30;10,35
2017-12-15 23:45;14,1
2017-12-16 00:00;12,1
2017-12-16 00:15;14,95
2017-12-16 00:30;9,9
2017-12-16 00:45;11,5
2017-12-16 01:00;10,3
2017-12-16 01:15;12,4
2017-12-16 01:30;11,8
2017-12-16 01:45;12,55
2017-12-16 02:00;13,1
2017-12-16 02:15;13,55
2017-12-16 02:30;14,1
2017-12-16 02:45;13,95
2017-12-16 03:00;14,5
2017-12-16 03:15;15,55
2017-12-16 03:30;15,8
2017-12-16 03:45;17
2017-12-16 04:00;15,95
2017-12-16 04:15;14,05
2017-12-16 04:30;14,95
2017-12-16 04:45;16,3
2017-12-16 05:00;14,8
2017-12-16 05:15;15,7
2017-12-16 05:30;15,1
2017-12-16 05:45;14,75
2017-12-16 06:00;14,15
2017-12-16 06:15;13,95
2017-12-16 06:30;16,35
2017-12-16 06:45;15,55
2017-12-16 07:00;14,15
2017-12-16 07:15;12,75
2017-12-16 07:30;12,1
2017-12-16 07:45;12,3
2017-12-16 08:00;13,3
2017-12-16 08:15;16,35
2017-12-16 08:30;15,95
2017-12-16 08:45;16,7
2017-12-16 09:00;13,25
2017-12-16 09:15;14,6
2017-12-16 09:30;11,95
2017-12-16 09:45;14,3
2017-12-16 10:00;12,05
2017-12-16 10:15;13,3
2017-12-16 10:30;11,55
2017-12-16 10:45;11,4
2017-12-16 11:00;11,2
2017-12-16 11:15;10,6
2017-12-16 11:30;11,95
2017-12-16 11:45;11,85
2017-12-16 12:00;11
2017-12-16 12:15;10,5
2017-12-16 12:30;10,45
2017-12-16 12:45;12,15
2017-12-16 13:00;11,3
2017-12-16 13:15;14,5
2017-12-16 13:30;13,95
2017-12-16 13:45;13,1
2017-12-16 14:00;14,25
2017-12-16 14:15;13,15
2017-12-16 14:30;13,15
2017-12-16 14:45;12,1
2017-12-16 15:00;15,45
2017-12-16 15:15;11,8
2017-12-16 15:30;14,25
2017-12-16 15:45;12,15
2017-12-16 16:00;12,55
2017-12-16 16:15;11,15
2017-12-16 16:30;13,55
2017-12-16 16:45;11,8
2017-12-16 17:00;13,3
2017-12-16 17:15;11,15
2017-12-16 17:30;12,45
2017-12-16 17:45;9,7
2017-12-16 18:00;14,45
2017-12-16 18:15;14,75
2017-12-16 18:30;15,4
2017-12-16 18:45;13,1
2017-12-16 19:00;15,55
2017-12-16 19:15;14,4
2017-12-16 19:30;15,45
2017-12-16 19:45;13,6
2017-12-16 20:00;13,65
2017-12-16 20:15;12,1
2017-12-16 20:30;12,9
2017-12-16 20:45;11,95
2017-12-16 21:00;11,75
2017-12-16 21:15;12,55
2017-12-16 21:30;16,35
2017-12-16 21:45;12,85
2017-12-16 22:00;10,05
2017-12-16 22:15;11,85
2017-12-16 22:30;14,45
2017-12-16 22:45;14,2
2017-12-16 23:00;8,35
2017-12-16 23:15;3,4
2017-12-16 23:30;5,45
2017-12-16 23:45;6,55
2017-12-17 00:00;6,8
2017-12-17 00:15;3,8
2017-12-17 00:30;3,3
2017-12-17 00:45;5,6
2017-12-17 01:00;4,7
2017-12-17 01:15;6,35
2017-12-17 01:30;1,75
2017-12-17 01:45;2,9
2017-12-17 02:00;4,75
2017-12-17 02:15;8,95
2017-12-17 02:30;10,8
2017-12-17 02:45;13,1
2017-12-17 03:00;12,05
2017-12-17 03:15;15,45
2017-12-17 03:30;13,95
2017-12-17 03:45;15,3
2017-12-17 04:00;13,1
2017-12-17 04:15;15,05
2017-12-17 04:30;12,35
2017-12-17 04:45;14,5
2017-12-17 05:00;12,55
2017-12-17 05:15;13,5
2017-12-17 05:30;13,75
2017-12-17 05:45;14,55
2017-12-17 06:00;13,75
2017-12-17 06:15;15,55
2017-12-17 06:30;15,15
2017-12-17 06:45;16,35
2017-12-17 07:00;12,4
2017-12-17 07:15;12,65
2017-12-17 07:30;11,95
2017-12-17 07:45;13,4
2017-12-17 08:00;12,05
2017-12-17 08:15;11,45
2017-12-17 08:30;9,6
2017-12-17 08:45;9,9
2017-12-17 09:00;7,8
2017-12-17 09:15;9,35
2017-12-17 09:30;7,15
2017-12-17 09:45;7,1
2017-12-17 10:00;6,8
2017-12-17 10:15;13
2017-12-17 10:30;14,7
2017-12-17 10:45;14,05
2017-12-17 11:00;12,65
2017-12-17 11:15;11,2
2017-12-17 11:30;13,7
2017-12-17 11:45;11,75
2017-12-17 12:00;12,55
2017-12-17 12:15;10,55
2017-12-17 12:30;11,35
2017-12-17 12:45;11,35
2017-12-17 13:00;10,7
2017-12-17 13:15;12,25
2017-12-17 13:30;13,6
2017-12-17 13:45;16,9
2017-12-17 14:00;14,7
2017-12-17 14:15;17,6
2017-12-17 14:30;16,2
2017-12-17 14:45;16,5
2017-12-17 15:00;15,9
2017-12-17 15:15;16,85
2017-12-17 15:30;17,6
2017-12-17 15:45;17,15
2017-12-17 16:00;17,6
2017-12-17 16:15;14,9
2017-12-17 16:30;13,8
2017-12-17 16:45;11,3
2017-12-17 17:00;10,2
2017-12-17 17:15;11
2017-12-17 17:30;13,7
2017-12-17 17:45;16,8
2017-12-17 18:00;13,1
2017-12-17 18:15;14,35
2017-12-17 18:30;14,75
2017-12-17 18:45;17,25
2017-12-17 19:00;13
2017-12-17 19:15;14,45
2017-12-17 19:30;12,6
2017-12-17 19:45;12,95
2017-12-17 20:00;11,75
2017-12-17 20:15;10,65
2017-12-17 20:30;10,85
2017-12-17 20:45;9,9
2017-12-17 21:00;11,65
2017-12-17 21:15;11,75
2017-12-17 21:30;13,95
2017-12-17 21:45;12,45
2017-12-17 22:00;13,3
2017-12-17 22:15;12,5
2017-12-17 22:30;8,45
2017-12-17 22:45;8,9
2017-12-17 23:00;9,55
2017-12-17 23:15;5,85
2017-12-17 23:30;7,15
2017-12-17 23:45;5,6

